Location: Newark
(7.0858°N, 171.3717°E)
Time: 11:59:48
(UTC+00:00)

Vanguard 1 Rocket - Pass Details

Date: 01 December 2020
Orbit: 655 x 4222 km, 34.3° (Epoch: 23 January)

Event Time Altitude Azimuth Distance (km) Brightness Sun altitude
Rises 06:42:52 0° 191° (S) 4,942 11.6 -7.1°
Reaches altitude 10° 06:48:03 10° 168° (SSE) 4,610 11.1 -8.3°
Maximum altitude 06:55:11 15° 136° (SE) 4,985 10.9 -9.9°
Drops below altitude 10° 07:04:34 10° 106° (ESE) 6,341 11.2 -12.1°
Enters shadow 07:08:53 - 96° (E) 7,082 11.4 -13.1°
